Location: Caltech
(34.1382°N, 118.1253°W)
Time: 13:12:28
(UTC-08:00)

Aureole 2 Rocket - Visible Passes

Search period start: 17 January 2017 00:00
Search period end: 27 January 2017 00:00
Orbit: 330 x 590 km, 73.9° (Epoch: 16 January)

Date Brightness Start Highest point End Pass type
(mag) Time Alt. Az. Time Alt. Az. Time Alt. Az.
17 Jan 4.9 04:31:11 24° NE 04:31:59 25° ENE 04:35:28 10° ESE visible
17 Jan 4.2 06:05:06 15° WNW 06:07:18 21° W 06:10:27 10° SSW visible
17 Jan 3.4 18:04:45 10° SSE 18:07:49 29° E 18:09:41 19° NE visible
17 Jan 5.6 19:41:34 10° W 19:43:27 13° WNW 19:43:36 13° WNW visible
18 Jan 5.9 04:00:01 14° E 04:00:01 14° E 04:01:25 10° E visible
18 Jan 3.4 05:33:56 35° W 05:34:34 37° WSW 05:38:21 10° S visible
18 Jan 4.2 17:32:50 10° SE 17:35:06 16° E 17:37:29 10° ENE visible
18 Jan 4.8 19:07:23 10° WSW 19:10:19 23° WNW 19:12:29 15° NNW visible
19 Jan 3.5 05:02:52 45° S 05:02:52 45° S 05:05:47 10° S visible
19 Jan 3.7 18:33:51 10° SW 18:37:15 43° WNW 18:41:00 10° N visible
20 Jan 5.2 04:31:50 17° SSE 04:31:50 17° SSE 04:32:51 10° SSE visible
20 Jan 2.6 18:00:42 10° SSW 18:04:17 86° WNW 18:08:13 10° NNE visible
22 Jan 5.5 18:31:29 10° WSW 18:34:01 17° WNW 18:36:42 10° NNW visible
23 Jan 4.6 17:57:33 10° SW 18:00:51 30° WNW 18:04:24 10° N visible
26 Jan 5.7 17:55:41 10° W 17:57:29 13° WNW 17:59:21 10° NNW visible
